www.pogodaiklimat.ru

Погода и климат >> Архив погоды >> Иран >> Abu Musa Island


ПОГОДА в Abu Musa Island

  • Прогноз погоды в Abu Musa Island
  • Монитор погоды в Abu Musa Island
  • Климат города

АРХИВ ПОГОДЫ в Abu Musa Island

Время (UTC), дата Ветер
(напр.,м/с)
 
Видим.   Явления Облачность Т
(С)
Тd
(С)
f
(%)
Тe
(С)
Тes
(С)
Комфортность P
(гПа)
Po
(гПа)
Тmin
(С)
Tmax
(С)
R
(мм)
R24
(мм)
S
(см)
09 18.09 В 4 6000 м мгла ясно +35.4 +28.1 66 +56 +68 опасность
перегрева
1005.0 1004.2
12 18.09 СВ 4 6000 м мгла ясно +36.0 1003.4 1002.6
15 18.09 СВ 3 6000 м мгла ясно +33.6 +27.3 70 +53 +53 опасность
перегрева
1003.6 1002.8 +36.2
03 19.09 ЮВ 3 6000 м дымка ясно +31.4 +29.3 89 +56 +56 опасность
перегрева
1006.1 1005.4 +30.8
06 19.09 Ю 7 6000 м мгла ясно +34.4 1008.2 1007.5
09 19.09 ЮЗ 5 6000 м мгла ясно +35.4 +27.8 65 +56 +65 опасность
перегрева
1006.7 1006.0
12 19.09 З 5 6000 м мгла ясно +36.2 1006.0 1005.3
15 19.09 З 3 6000 м мгла ясно +34.6 +28.1 69 +56 +56 опасность
перегрева
1005.1 1004.4 +36.4
03 20.09 СВ 2 6000 м дымка ясно +31.6 +29.7 90 +57 +58 опасность
перегрева
1004.5 1003.8 +31.2
06 20.09 Ю 3 5000 м мгла ясно +35.4 1006.2 1005.5
12 20.09 ЮЗ 3 6000 м мгла ясно +35.8 1004.5 1003.7
03 21.09 В 2 5000 м дымка 5/4 600 м
[Frnb]
+29.8 +29.0 95 +52 +52 опасность
перегрева
1005.1 1004.4 +29.8
06 21.09 В 4 6000 м мгла 4/3 600 м
[Sc Ac und]
+34.8 +28.4 70 +57 +62 опасность
перегрева
1007.0 1006.2
09 21.09 ЮЗ 3 5000 м мгла ясно +35.6 +28.1 65 +56 +70 опасность
перегрева
1005.9 1005.2
12 21.09 С 3 6000 м мгла ясно +35.6 1004.6 1003.8
15 21.09 С 10 6000 м мгла ясно +34.4 +28.5 71 +56 +56 опасность
перегрева
1005.0 1004.2 +35.8
03 22.09 ЮВ 2 1000 м дымка 1/1 600 м
[St]
+29.6 +29.6 100 +53 +54 опасность
перегрева
1005.4 1004.7 +29.6
06 22.09 С 2 5000 м дымка ясно +33.6 1007.2 1006.5
09 22.09 В 3 6000 м мгла ясно +36.8 +27.6 59 +56 +70 опасность
перегрева
1006.6 1005.8
12 22.09 С 2 5000 м мгла ясно +37.4 1005.2 1004.4
15 22.09 С 2 6000 м мгла ясно +33.6 +27.0 68 +51 +51 опасность
перегрева
1004.2 1003.5 +37.4
03 23.09 СВ 2 3600 м дымка ясно +29.4 +29.1 98 +51 +52 опасность
перегрева
1007.0 1006.3 +29.4
06 23.09 СВ 3 6000 м мгла ясно +34.0 +29.8 79 +60 +70 опасность
перегрева
1009.0 1008.3
12 23.09 СВ 4 5000 м мгла ясно +37.4 1006.1 1005.3
15 23.09 СВ 4 6000 м мгла ясно +34.4 +28.5 71 +56 +56 опасность
перегрева
1005.6 1004.8 +37.4
03 24.09 Ю 5 5000 м дымка ясно +30.8 +30.5 98 +58 +59 опасность
перегрева
1006.4 1005.7 +30.8
06 24.09 Ю 5 6000 м мгла ясно +34.4 1008.2 1007.5
09 24.09 ЮЗ 5 6000 м мгла ясно +36.6 +27.7 60 +56 +65 опасность
перегрева
1007.3 1006.6
12 24.09 З 5 6000 м мгла ясно +35.4 1005.6 1004.8
15 24.09 СЗ 2 6000 м мгла ясно +35.4 +27.5 64 +55 +55 опасность
перегрева
1006.8 1006.0 +37.4
03 25.09 З 5 6000 м дымка ясно +31.6 +30.0 91 +58 +58 опасность
перегрева
1006.2 1005.5 +31.6
06 25.09 ЮЗ 5 4500 м мгла 4/3 600 м
[Frnb Ac und]
+34.8 +28.9 72 +58 +62 опасность
перегрева
1007.5 1006.8

 

Местоположение метеостанции Abu Musa Island (Иран): широта 25.83 долгота 54.83 высота над уровнем моря 6 м.

В архиве по умолчанию представлена погода в Abu Musa Island за последнюю неделю. Архивные данные за месяц целиком и за предыдущие месяцы, начиная с января 2011 года, Вы можете получить, выбрав интересующий диапазон дат из раскрывающегося списка и нажав кнопку "Ввод!".


*Определитесь, кто Вы:
робот инопланетянин человек

Внимание! Время в таблицах - всемирное. Для получения местного времени необходимо прибавить поправку, которая в Abu Musa Island равна 3.5 ч.

Смотрите также архив погоды в соседних городах и на ближайших метеорологических станциях:

Погода в Sirri Island (Иран) (29 км)
Погода в Dubai (ОАЭ) (82 км)
Погода в Bandar Lengeh (Иран) (83 км)
Погода в Sharjah (ОАЭ) (89 км)
Погода в Dubai Al Maktoum Int Airport (ОАЭ) (109 км)
Погода в Ras Al Khaimah Int Airport (ОАЭ) (113 км)
Погода в Kish Island (Иран) (113 км)
Погода в Diba (Оман) (144 км)
Погода в Khasab Airport (Оман) (145 км)
Погода в Khasab (Оман) (147 км)

Пояснения к столбцам:

Ветер - указаны скорость ветра в м/с - средняя за 10 мин, порывы в срок и между сроками (в фигурных скобках) и направление, откуда дует ветер: С - северный, СВ - северо-восточный, В - восточный, ЮВ - юго-восточный, Ю - южный, ЮЗ - юго-западный, З - западный, СЗ - северо-западный.
Видимость - горизонтальная дальность видимости в метрах или километрах. При видимости от 1 до 10 км при отсутствии осадков обычно наблюдается дымка, при ухудшении видимости до 1 км и менее - туман. В сухую погоду видимость может ухудшаться дымом, пылью или мглою.
Явления - указаны атмосферные явления, наблюдавшиеся в срок или в последний час перед сроком; фигурными скобками обозначены явления, наблюдавшиеся между сроками (за 1-3 часа до срока); квадратными скобками обозначены град или гололедные отложения с указанием их диаметра в мм.
Облачность - указаны через наклонную черту общая и нижняя облачность в баллах и высота нижней границы облаков в метрах; квадратными скобками обозначены формы облаков: Ci - перистые, Cs - перисто-слоистые, Cc - перисто-кучевые, Ac - высококучевые, As - высокослоистые, Sc - слоисто-кучевые, Ns - слоисто-дождевые, Cu - кучевые, Cb - кучево-дождевые. Подробнее классификацию облаков см. в Атласе облаков (PDF).
T - Температура воздуха - температура, измеренная на высоте 2 м над землей.
Td - Температура точки росы - температура, при понижении до которой содержащийся в воздухе водяной пар достигнет насыщения.
f - Относительная влажность воздуха - влажноcть воздуха, измеренная на высоте 2 м над землей.
Te - Эффективная температура - температура, которую ощущает одетый по сезону человек в тени. Характеристика душности погоды. При расчете учитывается влияние влажности воздуха и скорости ветра на теплоощущения человека.
Tes - Эффективная температура на солнце - температура, которую ощущает человек, с поправкой на солнечный нагрев. Характеристика знойности погоды. Зависит от высоты солнца над горизонтом, облачности и скорости ветра. Ночью, в пасмурную погоду, а также при ветре 12 м/с и более поправка равна нулю.
P - Атмосферное давление - приведенное к уровню моря атмосферное давление.
Po - Атмосферное давление - измеренное на уровне метеостанции атмосферное давление.
Tmin - Минимальная температура - минимум температуры воздуха на высоте 2 м над землей.
Tmax - Максимальная температура - максимум температуры воздуха на высоте 2 м над землей.
R - Количество осадков - Количество выпавших осадков за период времени, мм. При наведении курсора мыши на число - период времени, за который выпало указанное количество осадков.
R24 - Количество осадков - Количество выпавших осадков за 24 часа, мм.
S - Снежный покров - Высота снежного покрова, см. При наведении курсора мыши на число - состояние снежного покрова и степень покрытия местности в баллах.